AirNav   Phillips 66 Aviation Fuel
 
 353 users online  

52K Charles E Grutzmacher Municipal Airport
Onaga, Kansas, USA


FAA INFORMATION EFFECTIVE 01 FEBRUARY 2018

Location

FAA Identifier: 52K
Lat/Long: 39-29-52.6200N / 096-10-30.3000W
39-29.877000N / 096-10.505000W
39.4979500 / -96.1750833
(estimated)
Elevation: 1183 ft. / 361 m (estimated)
Variation: 06E (1985)
Time zone: UTC -6 (UTC -5 during Daylight Saving Time)
Zip code: 66521

Airport Operations

Airport use: Open to the public
Activation date: 01/1965
Control tower: no
ARTCC: KANSAS CITY CENTER
FSS: WICHITA FLIGHT SERVICE STATION
NOTAMs facility: ICT (NOTAM-D service available)
Attendance: UNATNDD
Wind indicator: yes
Segmented circle: no

Airport Communications

CTAF: 122.9

Nearby radio navigation aids

VOR radial/distance  VOR name  Freq  Var
MHKr043/31.2MANHATTAN VOR/DME110.2004E
TOPr302/36.2TOPEKA VORTAC117.8005E

Airport Services

Parking: tiedowns
Airframe service: NONE
Powerplant service: NONE
Bottled oxygen: NONE
Bulk oxygen: NONE

Runway Information

Runway 18/36

Dimensions: 2200 x 61 ft. / 671 x 19 m
WIDTH VARIES FM MIN 61 FT AT AER 36 TO MAX 136 FT AT MIDFLD.
Surface: turf, in good condition
RWY NR MIDFIELD HAS OCNL MINOR DEPRESSIONS.
Runway edge lights: AER 36 MKD WITH 4 WHITE LGTS ON 36 IN. PEDESTALS. FIRST 600 FT RY 36 LGTD. W SIDE ONLY.
Gradient: N
RUNWAY 18  RUNWAY 36
Latitude: 39-30.057500N39-29.696500N
Longitude: 096-10.483833W096-10.526167W
Elevation: 1177.0 ft.1166.0 ft.
Gradient: 0.5% UP
Traffic pattern: leftleft
Obstructions: 44 ft. tree, 645 ft. from runway, 162 ft. left of centerline, 14:1 slope to clear8 ft. road, 30 ft. from runway, 3:1 slope to clear

Airport Ownership and Management from official FAA records

Ownership: Publicly-owned
Owner: CITY OF ONAGA
PO BOX 298 - 319 PROSPECT ST.
ONAGA, KS 66521
Phone 785-889-4456
Manager: AUGUST HARTWICH, MAYOR
PO BOX 298
ONAGA, KS 66521
Phone (785) 889-4456

Airport Operational Statistics

Aircraft based on the field: 1
Single engine airplanes: 1
    
Aircraft operations: avg 25/month *
33% transient general aviation
33% local general aviation
33% military
* for 12-month period ending 31 July 2017

Instrument Procedures

There are no published instrument procedures at 52K.

Some nearby airports with instrument procedures:

KMYZ - Marysville Municipal Airport (30 nm NW)
KMHK - Manhattan Regional Airport (31 nm SW)
KTOP - Philip Billard Municipal Airport (36 nm SE)
KFRI - Marshall Army Airfield (38 nm SW)
KFOE - Topeka Regional Airport (41 nm SE)
 
Loc | Ops | Rwys | IFR | FBO | Links
Com | Nav | Svcs | Stats | Notes

Kansas City Aviation Department
 
Area around 52K (Charles E Grutzmacher Municipal Airport)
 
Road maps at: MapQuest Bing Google
 
Aerial photo
WARNING: Photo may not be current or correct
Aerial photo of 52K (Charles E Grutzmacher Municipal Airport)
Taken in the Fall of 2003

Do you have a better or more recent aerial photo of Charles E Grutzmacher Municipal Airport that you would like to share? If so, please send us your photo.

 
Sectional chart

 
Airport distance calculator
Flying to Charles E Grutzmacher Municipal Airport? Find the distance to fly.

From to 52K

Sunrise and sunset
Times for 20-Feb-2018
 Local
(UTC-6)
 Zulu
(UTC)
Morning civil twilight06:4412:44
Sunrise07:1113:11
Sunset18:0600:06
Evening civil twilight18:3300:33

Current date and time
Zulu (UTC)  20-Feb-2018 10:00:25
Local (UTC-6)  20-Feb-2018 04:00:25
 
METAR
KMYZ 
30nm NW 
200935Z AUTO 34009KT 3SM -SN OVC006 M05/M06 A2988 RMK AO2
KMHK 
32nm SW 
200952Z AUTO 34004KT 4SM BR OVC009 M04/M06 A2992 RMK AO2 FZRAE0853 CIG 007V013 SLP141 I1000 T10441061 PNO $
KTOP 
36nm SE 
200953Z AUTO 32004KT 3SM BR OVC008 M02/M02 A2986 RMK AO2 FZRAE02 CIG 005V010 SLP119 P0000 I1001 T10171017
KFRI 
39nm SW 
200926Z 35008KT 7SM FZDZ OVC006 M04/M06 A2988 RMK AO2A FZDZE0859FZDZB03E17FZDZB23 SLP128
KFOE 
42nm SE 
200953Z AUTO 34010KT 2 1/2SM BR OVC006 M02/M03 A2984 RMK AO2 UPE0855FZRAB0855E20 CIG 003V009 SLP114 P0000 I1002 T10171028
KFNB 
44nm NE 
200953Z AUTO 32012G18KT 6SM BR OVC009 M04/M06 A2987 RMK AO2 CIG 006V013 SLP125 T10441056 PNO $
TAF
KMHK 
32nm SW 
200526Z 2006/2106 04008KT 3SM -FZRA VCTS OVC008CB WS020/20035KT FM200700 04008KT 3SM -FZDZ BR OVC008 FM201100 34008KT 3SM -FZRA BR OVC008 FM201400 35011KT P6SM OVC010 FM201800 34012G18KT P6SM SCT030
KTOP 
36nm SE 
200526Z 2006/2106 36008KT 3SM -FZRA VCTS OVC008CB WS020/20035KT FM200800 34008KT 3SM -FZDZ BR OVC008 FM201200 34008KT 3SM -FZRA BR OVC008 FM201500 34011KT P6SM OVC010 FM202000 34012G18KT P6SM SCT030
KFRI 
39nm SW 
200800Z 2008/2114 01009KT 9999 BKN007 OVC020 610109 510203 QNH2972INS TEMPO 2008/2012 8000 -FZRA 690001 BECMG 2011/2012 34015KT 9000 -SNPL BKN010 610129 QNH2985INS BECMG 2014/2015 34012G20KT 9999 NSW FEW020 FEW100 QNH2996INS BECMG 2100/2101 36009KT 9999 SKC QNH3026INS TXM01/2020Z TNM09/2108Z
NOTAMs
Click for the latest NOTAMs
NOTAMs are issued by the DoD/FAA and will open in a separate window not controlled by AirNav.

 

 
 

Would you like to see your business listed on this page?

 If your business provides an interesting product or service to pilots, flight crews, aircraft, or users of the Charles E Grutzmacher Municipal Airport, you should consider listing it here.  To start the listing process, click on the button below
 
Add a business
 

Other Pages about Charles E Grutzmacher Municipal Airport

Update a link
 
Copyright © AirNav, LLC. All rights reserved. Privacy Policy  Contact